Weather History for KORG - December, 2013

Change the Weather History Date:

Sunday, December 1, 2013

  Actual Average Record
Temperature  
Mean Temperature 54 °F -  
Max Temperature 67 °F 64 °F 79 °F (1967)
Min Temperature 41 °F 42 °F 23 °F (1976)
Degree Days  
Heating Degree Days 11    
Growing Degree Days 4 (Base 50)    
Moisture  
Dew Point 53 °F    
Average Humidity 88    
Maximum Humidity 100    
Minimum Humidity 62    
Precipitation  
Precipitation 0.00 in - - ()
Sea Level Pressure  
Sea Level Pressure 30.16 in    
Wind  
Wind Speed 2 mph (SSE)    
Max Wind Speed 9 mph    
Max Gust Speed -    
Visibility 8 miles    
Events Fog    
Averages and records for this station are not official NWS values.
T = Trace of Precipitation, MM = Missing Value Source: NWS Daily Summary

Daily Weather History Graph

Daily Weather History Graph

Search for Another Location

Airport or City:

Trip Planner

Search our weather history database for the weather conditions in past years. The results will help you decide how hot, cold, wet, or windy it might be!

Date:

Astronomy

Dec. 01, 2013 Rise Set
Actual Time 6:53 AM CST 5:14 PM CST
Civil Twilight 6:27 AM CST 5:40 PM CST
Nautical Twilight 5:58 AM CST 6:10 PM CST
Astronomical Twilight 5:29 AM CST 6:39 PM CST
Moon 5:18 AM CST (12/1) 4:21 PM CST (12/1)
Length of Visible Light 11h 13m
Length of Day
10h 20m
Waning Crescent, 2% of the Moon is Illuminated
Dec 1
Waning Crescent
Dec 2
New
Dec 9
First Quarter
Dec 17
Full
Dec 25
Last Quarter

Hourly Weather History & Observations

Time (CST) Temp. Dew Point Humidity Pressure Visibility Wind Dir Wind Speed Gust Speed Precip Events Conditions
12:15 AM 43.5 °F 43.3 °F 99% 30.28 in 0.2 mi Calm Calm - N/A Fog Fog
12:35 AM 43.7 °F 43.5 °F 99% 30.27 in 0.2 mi Calm Calm - N/A Fog Fog
12:55 AM 43.0 °F 42.6 °F 99% 30.26 in 0.2 mi Calm Calm - N/A Fog Fog
1:15 AM 42.8 °F 42.8 °F 100% 30.26 in 0.2 mi Calm Calm - N/A Fog Fog
1:35 AM 42.8 °F 42.8 °F 100% 30.26 in 0.2 mi Calm Calm - N/A Fog Fog
1:55 AM 42.1 °F 42.1 °F 100% 30.25 in 0.2 mi Calm Calm - N/A Fog Fog
2:15 AM 41.9 °F 41.9 °F 100% 30.25 in 0.2 mi Calm Calm - N/A Fog Fog
2:35 AM 41.5 °F 41.4 °F 99% 30.24 in 0.5 mi Calm Calm - N/A Fog Fog
2:55 AM 42.1 °F 41.9 °F 99% 30.25 in 0.2 mi Calm Calm - N/A Fog Fog
3:15 AM 41.0 °F 40.8 °F 99% 30.25 in 0.2 mi Calm Calm - N/A Fog Fog
3:35 AM 42.8 °F 42.6 °F 99% 30.25 in 0.8 mi Calm Calm - N/A   Overcast
3:55 AM 45.0 °F 44.8 °F 99% 30.25 in 3.0 mi Calm Calm - N/A   Overcast
4:15 AM 45.7 °F 45.5 °F 99% 30.25 in 3.0 mi Calm Calm - N/A   Overcast
4:35 AM 46.8 °F 46.6 °F 99% 30.25 in 3.0 mi Calm Calm - N/A   Overcast
4:55 AM 47.3 °F 46.9 °F 99% 30.25 in 4.0 mi East 3.5 mph - N/A   Overcast
5:15 AM 48.0 °F 47.7 °F 99% 30.25 in 4.0 mi Calm Calm - N/A   Overcast
5:35 AM 49.1 °F 48.7 °F 99% 30.25 in 7.0 mi Calm Calm - N/A   Overcast
5:55 AM 49.1 °F 49.1 °F 100% 30.25 in 7.0 mi Calm Calm - N/A   Overcast
6:15 AM 49.3 °F 49.1 °F 99% 30.25 in 7.0 mi Calm Calm - N/A   Overcast
6:35 AM 49.3 °F 49.1 °F 99% 30.24 in 10.0 mi Calm Calm - N/A   Overcast
6:55 AM 49.1 °F 49.1 °F 100% 30.24 in 10.0 mi East 4.6 mph - N/A   Overcast
7:15 AM 49.3 °F 49.1 °F 99% 30.25 in 7.0 mi Calm Calm - N/A   Overcast
7:35 AM 49.8 °F 49.6 °F 99% 30.26 in 7.0 mi Calm Calm - N/A   Overcast
7:55 AM 50.4 °F 50.2 °F 99% 30.26 in 10.0 mi Calm Calm - N/A   Overcast
8:15 AM 50.9 °F 50.9 °F 100% 30.25 in 10.0 mi East 3.5 mph - N/A   Overcast
8:35 AM 52.2 °F 52.0 °F 99% 30.26 in 10.0 mi Calm Calm - N/A   Overcast
8:55 AM 53.1 °F 53.1 °F 100% 30.25 in 10.0 mi Calm Calm - N/A   Overcast
9:15 AM 54.5 °F 54.5 °F 100% 30.24 in 10.0 mi ESE 3.5 mph - N/A   Mostly Cloudy
9:35 AM 55.9 °F 55.9 °F 100% 30.25 in 10.0 mi SE 4.6 mph - N/A   Overcast
9:55 AM 61.0 °F 53.6 °F 77% 30.25 in 10.0 mi SE 5.8 mph - N/A   Overcast
10:15 AM 62.1 °F 53.4 °F 73% 30.24 in 10.0 mi SE 5.8 mph - N/A   Overcast
10:35 AM 63.7 °F 54.0 °F 71% 30.24 in 10.0 mi SSE 5.8 mph - N/A   Overcast
10:55 AM 64.6 °F 53.8 °F 68% 30.23 in 10.0 mi South 6.9 mph - N/A   Overcast
11:15 AM 65.3 °F 53.6 °F 66% 30.22 in 10.0 mi South 6.9 mph - N/A   Mostly Cloudy
11:35 AM 65.5 °F 53.8 °F 66% 30.20 in 10.0 mi South 8.1 mph - N/A   Overcast
11:55 AM 66.6 °F 53.8 °F 63% 30.20 in 10.0 mi South 6.9 mph - N/A   Overcast
12:15 PM 67.3 °F 54.0 °F 62% 30.19 in 10.0 mi SSW 6.9 mph - N/A   Overcast
12:35 PM 66.4 °F 53.8 °F 64% 30.18 in 10.0 mi South 8.1 mph - N/A   Overcast
12:55 PM 67.1 °F 54.0 °F 63% 30.17 in 10.0 mi SSE 5.8 mph - N/A   Overcast
1:15 PM 66.9 °F 54.5 °F 64% 30.16 in 10.0 mi South 6.9 mph - N/A   Overcast
1:35 PM 67.1 °F 54.9 °F 65% 30.14 in 10.0 mi SSE 6.9 mph - N/A   Overcast
1:55 PM 67.3 °F 55.0 °F 65% 30.13 in 10.0 mi South 8.1 mph - N/A   Overcast
2:15 PM 66.9 °F 54.7 °F 65% 30.12 in 10.0 mi South 9.2 mph - N/A   Overcast
2:35 PM 66.4 °F 55.0 °F 67% 30.11 in 10.0 mi SSE 6.9 mph - N/A   Overcast
2:55 PM 66.6 °F 55.0 °F 66% 30.11 in 10.0 mi SSE 6.9 mph - N/A   Overcast
3:15 PM 66.9 °F 55.4 °F 66% 30.10 in 10.0 mi South 8.1 mph - N/A   Overcast
3:35 PM 66.2 °F 55.4 °F 68% 30.09 in 10.0 mi South 8.1 mph - N/A   Overcast
3:55 PM 65.3 °F 55.4 °F 70% 30.09 in 10.0 mi South 5.8 mph - N/A   Overcast
4:15 PM 64.8 °F 55.6 °F 72% 30.08 in 10.0 mi SSE 6.9 mph - N/A   Mostly Cloudy
4:35 PM 63.9 °F 55.6 °F 74% 30.09 in 10.0 mi South 5.8 mph - N/A   Overcast
4:55 PM 62.8 °F 55.6 °F 77% 30.07 in 10.0 mi South 5.8 mph - N/A   Overcast
5:15 PM 61.5 °F 55.6 °F 81% 30.07 in 10.0 mi SSE 4.6 mph - N/A   Scattered Clouds
5:35 PM 60.6 °F 55.8 °F 84% 30.07 in 10.0 mi South 4.6 mph - N/A   Clear
5:55 PM 59.9 °F 55.9 °F 87% 30.06 in 10.0 mi SE 3.5 mph - N/A   Clear
6:15 PM 59.4 °F 56.5 °F 90% 30.06 in 10.0 mi South 3.5 mph - N/A   Clear
6:35 PM 59.4 °F 57.2 °F 93% 30.06 in 10.0 mi SSE 3.5 mph - N/A   Scattered Clouds
6:55 PM 59.2 °F 57.4 °F 94% 30.06 in 10.0 mi SSE 3.5 mph - N/A   Scattered Clouds
7:15 PM 59.2 °F 57.7 °F 95% 30.05 in 10.0 mi SSE 4.6 mph - N/A   Scattered Clouds
7:35 PM 59.4 °F 58.3 °F 96% 30.05 in 10.0 mi SSE 4.6 mph - N/A   Mostly Cloudy
7:55 PM 59.9 °F 58.6 °F 96% 30.06 in 10.0 mi SSE 4.6 mph - N/A   Overcast
8:15 PM 60.1 °F 58.6 °F 95% 30.05 in 10.0 mi SSE 4.6 mph - N/A   Overcast
8:35 PM 60.4 °F 58.8 °F 94% 30.05 in 10.0 mi SSE 5.8 mph - N/A   Overcast
8:55 PM 60.8 °F 59.0 °F 94% 30.05 in 10.0 mi South 5.8 mph - N/A   Overcast
9:15 PM 61.2 °F 59.2 °F 93% 30.05 in 10.0 mi South 4.6 mph - N/A   Overcast
9:35 PM 60.8 °F 59.0 °F 94% 30.03 in 10.0 mi SSE 6.9 mph - N/A   Mostly Cloudy
9:55 PM 61.2 °F 59.4 °F 94% 30.04 in 10.0 mi South 5.8 mph - N/A   Mostly Cloudy
10:15 PM 61.7 °F 59.5 °F 93% 30.03 in 10.0 mi SSE 5.8 mph - N/A   Overcast
10:35 PM 61.7 °F 59.7 °F 93% 30.03 in 10.0 mi SSE 5.8 mph - N/A   Overcast
10:55 PM 61.7 °F 59.9 °F 94% 30.01 in 10.0 mi SSE 6.9 mph - N/A   Overcast
11:15 PM 61.3 °F 59.9 °F 95% 30.00 in 10.0 mi SSE 6.9 mph - N/A   Mostly Cloudy
11:35 PM 61.3 °F 59.9 °F 95% 29.99 in 10.0 mi SSE 5.8 mph - N/A   Mostly Cloudy
11:55 PM 61.7 °F 60.3 °F 95% 30.00 in 10.0 mi SSE 4.6 mph - N/A   Mostly Cloudy